map of YEI home
YEI - Airport
Location
City:  Bursa, Bursa, Turkey
Name:Yenisehir
ICAO:LTBR
IATA:YEI

Details
Type:Airport (Aerodrome, Airfield)
Use:Public/Civil, Military
Latitude:4015'19"N (40.255208)
Longitude:2933'45"E (29.562569)
Datum:WGS 1984
Elevation:764 ft (233 m)
Variation:5.50E (WMM2015 magnetic declination)
0.10 annual change
Runways:2
Longest:9818 × 148 ft (2993 × 45 m), paved

Time
Time Zone:UTC+3
Local Time:

Weather
METAR:LTBR 162120Z VRB02KT 9999 FEW018 SCT030 BKN090 07/07 Q1026 RESHRA NOSIG RMK RWY07 21003KT 190V250
TAF:LTBR 161040Z 1612/1712 31012KT 9999 -SHRA BKN022 BKN080
BECMG 1612/1616 SCT030 BKN090
BECMG 1617/1620 VRB02KT
BECMG 1622/1702 CAVOK PROB30 1703/1706 4000 BR
BECMG 1706/1709 09012KT
BECMG 1709/1712 SCT035 BKN100

Related Locations
Nearby:
Farthest:RVV: 11291 mi / 18170 km
Raivavae, Tubuai Islands, Austral Islands, PF

Find:

   beyond  
but within

Other Information
Maps:
NOTAMs:
Links:
Sources:

  
  • flag of Turkey
  

Sectional Chart

Flight Planning
at skyvector.com

Satellite Image

Google Maps Satellite view

 

Copyright © 2004-2018 Karl L. Swartz. All rights reserved.
The Great Circle Mapper name and logo are trademarks of the Great Circle Mapper.
All other trademarks mentioned herein belong to their respective owners.
Please see credits for attibutions and further copyright information.

  Follow gcmap on Facebook Follow gcmap on Twitter Follow gcmap on Google+ GCmap on LinkedIn

hCard Microformat

Geo Microformat